This demonstration page uses our WeatherBlox Daily Observations layout. Learn more.

Left ArrowRight Arrow

31.31129, -92.44514

Hourly Observations for October 17, 2015

Temp ( °F °C ) Dew Point ( °F °C ) Humidity (%) Winds ( mph kmh ) Pressure ( in mb ) Visibility ( mi km ) Precip ( " mm )
12:53 am 00:53 Clear 64 17.8 36 2.2 35 35 NE 9 15 30.24 1024 10 16 0.00 0.00
1:53 am 01:53 Clear 63 17.2 35 1.7 35 35 NE 7 11 30.23 1024 10 16 0.00 0.00
2:53 am 02:53 Clear 61 16.1 34 1.1 36 36 NNE 6 9 30.24 1024 10 16 0.00 0.00
3:53 am 03:53 Clear 61 16.1 33 0.6 35 35 NNE 6 9 30.24 1024 10 16 0.00 0.00
4:53 am 04:53 Clear 59 15 34 1.1 39 39 N 3 6 30.25 1024 10 16 0.00 0.00
5:53 am 05:53 Clear 57 13.9 34 1.1 42 42 N 3 6 30.27 1025 10 16 0.00 0.00
6:53 am 06:53 Clear 56 13.3 35 1.7 46 46 NNE 3 6 30.28 1025 10 16 0.00 0.00
7:53 am 07:53 Sunny 56 13.3 35 1.7 46 46 NNE 5 7 30.30 1026 10 16 0.00 0.00
8:53 am 08:53 Sunny 62 16.7 35 1.7 37 37 NE 9 15 30.33 1027 10 16 0.00 0.00
9:53 am 09:53 Sunny 68 20 34 1.1 28 28 ENE 8 13 30.34 1028 10 16 0.00 0.00
10:53 am 10:53 Sunny 69 20.6 32 0 25 25 E 14 22 30.33 1027 10 16 0.00 0.00
11:53 am 11:53 Sunny 73 22.8 33 0.6 23 23 NE 12 19 30.32 1027 10 16 0.00 0.00
12:53 pm 12:53 Sunny 75 23.9 33 0.6 22 22 ENE 13 20 30.30 1026 10 16 0.00 0.00
1:53 pm 13:53 Sunny 76 24.4 29 -1.7 18 18 NE 8 13 30.27 1025 10 16 0.00 0.00
2:53 pm 14:53 Sunny 76 24.4 27 -2.8 16 16 ENE 12 19 30.25 1024 10 16 0.00 0.00
3:53 pm 15:53 Sunny 78 25.6 27 -2.8 15 15 NE 12 19 30.24 1024 10 16 0.00 0.00
4:53 pm 16:53 Sunny 76 24.4 26 -3.3 16 16 NE 12 19 30.24 1024 10 16 0.00 0.00
5:53 pm 17:53 Sunny 74 23.3 29 -1.7 19 19 NNE 8 13 30.25 1024 10 16 0.00 0.00
6:53 pm 18:53 Clear 69 20.6 30 -1.1 23 23 NE 5 7 30.27 1025 10 16 0.00 0.00
7:53 pm 19:53 Clear 65 18.3 32 0 29 29 NNE 5 7 30.28 1026 10 16 0.00 0.00
8:53 pm 20:53 Clear 63 17.2 32 0 31 31 NNE 5 7 30.30 1026 10 16 0.00 0.00
9:53 pm 21:53 Clear 61 16.1 32 0 34 34 NNE 5 7 30.31 1026 10 16 0.00 0.00
10:53 pm 22:53 Clear 59 15 32 0 36 36 NE 5 7 30.31 1027 10 16 0.00 0.00
11:53 pm 23:53 Clear 59 15 31 -0.6 35 35 NNE 6 9 30.31 1026 10 16 0.00 0.00

Powered by AerisWeather